Vorticity
nan nan nan nan nan nan nan nan nan nan nan nan nan nan nan nan nan nan nan nan nan nan nan nan nan nan nan nan nan nan nan nan nan nan nan nan nan nan nan nan nan nan nan nan nan
nan 7 6 7 6 6 6 7 6 6 6 7 8 8 8 14 20 8 16 10 6 3 3 5 5 9 5 10 7 8 5 6 -3 5 6 6 8 5 7 0 5 13 11 9 nan
nan 7 6 6 7 7 7 7 7 7 7 7 8 9 9 14 15 17 11 6 5 0 1 5 7 9 9 7 6 5 1 3 3 5 7 12 -1 1 4 8 8 4 4 6 nan
nan 7 7 7 7 7 8 7 8 7 7 8 9 11 19 13 5 16 7 6 5 4 6 5 8 8 8 7 7 1 3 1 9 13 9 5 17 16 10 10 10 6 6 4 nan
nan 7 7 7 7 7 8 8 8 7 7 8 9 12 17 11 11 9 7 7 4 8 6 4 6 5 5 9 10 4 6 13 16 9 5 -1 3 12 11 17 14 8 5 4 nan
nan 7 7 8 8 8 8 8 7 7 7 9 10 15 11 5 16 10 6 4 7 5 3 6 6 7 8 8 10 9 6 15 20 8 3 4 1 10 -2 9 9 6 4 6 nan
nan 8 7 7 8 8 8 8 7 8 8 10 15 14 10 7 8 8 5 3 6 6 4 5 9 10 6 9 3 12 21 8 10 7 4 2 6 8 2 4 4 8 9 8 nan
nan 7 7 8 8 8 8 8 8 11 13 14 12 11 7 13 10 8 3 4 6 6 8 5 8 10 9 6 8 16 16 11 7 9 -0 -2 12 1 11 2 1 11 10 8 nan
nan 7 8 8 8 8 8 9 20 22 18 10 7 8 7 10 11 9 7 7 10 10 7 7 9 5 6 11 10 18 7 3 2 3 12 6 11 15 8 2 6 5 7 14 nan
nan 7 8 8 7 8 17 27 22 21 18 6 4 7 11 8 12 13 8 4 6 10 13 9 9 5 5 7 9 8 3 -3 11 7 12 9 10 21 11 5 2 10 16 10 nan
nan 8 8 8 8 10 18 23 16 13 9 6 2 -4 4 12 5 7 9 14 9 5 9 10 7 6 6 2 8 6 8 5 7 3 11 9 12 16 11 9 -1 6 19 6 nan
nan 8 8 8 9 20 17 4 7 4 7 10 5 7 5 7 10 7 9 9 7 6 3 10 7 8 6 8 6 5 7 13 3 10 -2 10 18 22 9 10 15 9 3 5 nan
nan 8 9 9 25 27 11 3 3 12 13 14 18 12 12 10 3 7 8 9 7 7 8 9 6 9 7 8 7 13 7 6 7 14 6 17 14 13 14 19 17 4 -3 6 nan
nan 8 5 21 25 11 14 9 5 13 13 14 13 15 16 9 8 9 6 9 7 7 10 5 8 9 15 12 9 6 6 8 18 10 12 6 10 7 12 6 12 1 8 10 nan
nan 9 14 23 12 4 0 5 14 13 11 16 14 15 19 6 8 9 9 6 10 6 7 8 8 11 10 8 10 7 6 9 10 8 13 5 13 7 7 9 5 9 15 21 nan
nan 6 20 22 11 4 3 11 13 11 9 9 15 11 11 9 7 7 12 8 10 8 8 11 7 11 11 11 8 7 10 9 12 11 8 12 11 9 10 7 10 12 23 26 nan
nan 10 15 12 4 3 16 20 11 9 4 7 8 5 5 10 10 12 9 8 5 7 9 10 13 9 7 10 11 9 12 11 8 13 8 4 11 15 10 16 17 15 18 15 nan
nan 27 23 8 2 7 13 10 12 9 1 -1 5 17 16 8 10 12 6 10 7 5 10 10 8 13 10 11 9 7 10 5 7 6 5 9 13 12 13 12 9 14 11 8 nan
nan 29 11 15 12 6 11 11 8 3 8 7 7 15 18 13 12 11 7 5 9 8 5 3 9 13 13 9 5 11 11 6 5 7 11 7 10 3 -1 11 20 13 12 19 nan
nan 12 15 19 13 6 7 8 5 1 2 10 12 16 12 7 14 12 11 8 7 6 7 1 11 2 20 18 10 12 1 7 12 13 7 12 10 7 -0 7 8 10 10 14 nan
nan 9 17 15 5 8 9 9 6 3 14 10 5 7 9 8 8 19 15 16 10 7 7 10 7 3 14 14 5 4 9 11 14 8 12 8 8 17 10 7 6 1 -3 14 nan
nan 13 11 5 7 8 7 4 3 8 15 9 8 8 6 6 10 13 19 12 19 22 9 11 6 15 4 7 13 11 8 9 3 7 12 9 12 15 10 18 17 1 2 14 nan
nan 12 12 7 6 8 10 7 5 15 9 5 9 9 8 9 8 8 10 7 11 18 18 15 11 9 6 12 23 14 6 8 7 14 9 4 14 11 10 5 6 7 28 10 nan
nan 10 10 9 7 8 10 18 17 12 6 8 8 11 12 11 10 6 5 6 10 15 7 13 13 14 10 3 1 8 15 9 8 7 11 7 12 8 12 14 4 5 8 9 nan
nan 7 11 11 13 9 6 9 18 15 9 7 8 8 7 7 9 8 8 8 14 14 14 7 5 5 7 9 8 15 8 2 8 16 15 16 8 9 7 6 -1 14 7 8 nan
nan 8 10 12 16 12 4 8 9 12 18 9 7 9 8 13 9 5 7 12 9 5 12 12 13 9 7 7 8 10 17 16 6 6 17 13 6 12 4 7 19 3 3 14 nan
nan nan nan nan nan nan nan nan nan nan nan nan nan nan nan nan nan nan nan nan nan nan nan nan nan nan nan nan nan nan nan nan nan nan nan nan nan nan nan nan nan nan nan nan nan
CAPE
0 0 0 0 0 0 0 0 0 0 0 0 0 0 0 0 0 0 0 0 0 489 220 0 0 0 0 0 15 27 77 10 27 0 20 0 99 52 118 539 680 724 969 930 924
0 0 0 0 0 0 0 0 0 0 0 0 0 0 0 0 0 0 0 0 0 10 0 0 0 0 0 0 0 0 2 14 1 0 14 35 55 120 222 543 1031 1032 924 938 965
0 0 0 0 0 0 0 0 0 0 0 0 0 0 0 0 0 0 6 0 0 0 0 0 0 0 0 0 8 2 0 0 5 3 31 108 161 39 182 525 864 933 1028 1092 1005
0 0 0 0 0 0 0 0 0 0 0 0 0 0 0 0 0 0 0 0 0 0 0 0 0 0 0 0 10 7 7 28 43 80 167 4 5 1 110 381 838 942 1135 1183 1164
0 0 0 0 0 0 0 0 0 0 0 0 0 0 0 0 0 0 0 0 0 0 0 0 0 0 0 0 0 3 58 126 54 53 138 153 111 41 250 259 901 1116 1262 1299 1220
0 0 0 0 0 0 0 0 0 0 0 0 0 0 0 0 0 0 0 0 0 0 0 0 0 0 0 0 0 45 43 41 0 4 129 70 73 264 269 524 733 1105 1212 1205 1303
0 0 0 0 0 0 0 0 0 0 0 0 0 0 0 0 0 0 0 0 0 0 0 0 0 0 0 0 0 0 22 14 0 4 57 33 73 23 151 345 546 723 1014 1083 1222
0 0 0 0 0 0 0 0 0 0 0 0 0 0 0 0 0 0 0 0 0 0 0 0 0 0 0 0 0 0 0 0 8 6 55 45 1 40 0 77 278 133 949 1141 1132
0 0 0 0 0 0 0 0 0 0 0 0 0 0 0 0 0 0 0 0 0 0 0 0 0 0 0 0 0 0 0 0 15 13 11 17 23 75 19 297 440 391 504 1157 1184
0 0 0 0 0 0 0 0 0 0 0 0 0 0 0 0 0 0 0 0 0 0 0 0 0 0 0 0 0 1 0 0 0 5 27 5 31 68 36 114 306 438 497 1271 1527
0 1 1 0 0 0 0 0 0 0 0 0 0 0 0 0 0 0 0 0 0 0 0 0 0 0 0 0 0 6 0 0 0 47 29 2 0 144 34 147 34 283 698 1328 1510
0 2 1 1 0 0 0 0 0 0 0 0 0 0 0 0 0 0 0 0 0 0 0 0 0 0 0 0 0 17 3 0 7 15 10 17 0 3 63 246 242 22 18 2 31
1 2 2 1 0 0 0 0 0 0 0 0 0 0 0 0 0 0 0 0 0 0 0 0 0 0 0 0 0 0 3 0 25 34 1 0 0 61 7 11 372 258 79 26 94
1 2 1 1 0 0 0 0 0 0 0 0 0 0 0 0 0 0 0 0 0 0 0 0 0 0 0 0 0 0 0 0 4 7 0 1 0 34 0 1 332 1024 497 11 174
0 2 1 2 0 0 0 0 0 0 0 0 0 0 0 0 0 0 0 0 0 0 0 0 0 0 0 0 0 0 0 0 0 0 0 0 0 66 54 26 0 0 12 991 1580
0 1 2 0 0 0 0 0 0 0 0 0 0 0 0 0 0 0 0 0 0 0 0 0 0 0 0 0 0 0 0 0 0 0 0 0 0 17 0 0 0 1 6 1851 2452
0 0 1 0 0 0 0 0 0 0 0 0 0 0 0 0 0 0 0 0 0 0 0 0 0 0 0 0 0 0 0 0 0 0 0 0 45 0 7 4 57 455 1487 2171 2774
0 0 0 0 0 0 0 0 0 0 0 0 0 0 0 0 0 0 0 0 0 0 0 0 0 0 0 0 0 0 0 0 0 7 0 0 0 0 139 389 281 633 879 1709 2268
0 0 0 0 0 0 0 0 0 0 0 0 0 0 0 0 0 0 0 0 0 0 0 0 0 0 0 0 0 0 0 0 0 0 0 6 35 19 110 185 396 190 1085 1713 2705
0 0 0 0 0 0 0 0 0 0 0 0 0 0 0 0 0 0 0 0 0 0 0 0 0 0 0 0 0 0 0 0 0 0 0 117 69 101 253 526 1139 1070 1982 2013 2199
0 0 0 0 0 0 0 0 0 0 0 0 0 0 0 0 0 0 0 0 0 0 0 0 0 0 0 0 0 0 0 0 9 40 13 82 5 51 335 80 767 1236 961 1947 2502
0 0 0 0 0 0 0 0 0 0 0 0 0 0 0 0 0 0 7 0 0 0 0 0 0 0 0 0 0 0 0 0 0 25 149 23 0 134 206 15 8 400 59 2273 2181
0 0 0 0 0 0 0 0 0 0 0 0 0 0 0 0 0 0 6 0 0 0 0 0 4 0 0 0 0 0 0 0 24 30 6 21 0 91 82 3 10 41 735 2325 2893
0 5 0 0 0 0 0 0 0 0 0 0 0 0 0 0 0 0 0 0 0 0 49 25 0 58 0 2 31 35 40 3 0 184 37 7 49 274 772 62 0 3 1293 1809 3183
0 23 1 0 0 0 0 0 0 0 0 0 0 0 0 0 0 0 0 0 53 86 0 0 0 6 0 0 0 0 0 0 0 0 15 147 182 105 238 188 237 1087 1235 1431 3271
0 0 0 0 0 0 0 0 0 0 0 0 0 0 0 0 0 0 0 0 248 99 280 7 0 0 0 0 0 0 0 0 13 1 31 487 360 193 17 0 5 511 502 753 2227
0 0 0 0 4 5 0 1 0 0 0 0 0 0 0 0 0 0 0 0 0 12 51 599 417 143 0 0 2 0 2 0 0 1 1 0 249 0 0 0 0 199 209 1272 2436